Location: Burbank
(38.7788°N, 114.0429°W)
Time: 06:15:54
(UTC+00:00)

Explorer 7 - Pass Details

Date: 14 May 2026
Orbit: 426 x 534 km, 50.2° (Epoch: 8 June)

Event Time Altitude Azimuth Distance (km) Brightness Sun altitude
Exits shadow 11:28:22 - 188° (S) 1,819 9.1 -10.4°
Reaches altitude 10° 11:29:12 10° 180° (S) 1,549 8.8 -10.2°
Maximum altitude 11:31:49 20° 132° (SE) 1,100 8.5 -9.8°
Drops below altitude 10° 11:34:30 10° 83° (E) 1,598 10.3 -9.4°
Sets 11:37:04 0° 67° (ENE) 2,501 12.3 -9.0°
